| time (UTC) | temp F | wind direction | speed MPH | gust MPH | rain 1hr in | rain 24hr in | rain mn in | humidity % | barometer mb |
| 20260505111517 | 49 | 128 | 0.0 | 2.0 | 0.00 | 0.00 | 0.00 | 96 | 1011.3 |
| 20260505111007 | 49 | 171 | 0.0 | 2.0 | 0.00 | 0.00 | 0.00 | 96 | 1011.2 |
| 20260505110511 | 48 | 139 | 0.0 | 2.0 | 0.00 | 0.00 | 0.00 | 96 | 1011.1 |
| 20260505102001 | 47 | 159 | 1.0 | 2.0 | 0.00 | 0.00 | 0.00 | 96 | 1010.6 |
| 20260505101503 | 47 | 169 | 0.0 | 2.0 | 0.00 | 0.00 | 0.00 | 96 | 1010.7 |
| 20260505101003 | 46 | 360 | 1.0 | 3.0 | 0.00 | 0.00 | 0.00 | 96 | 1010.6 |
| 20260505100502 | 46 | 109 | 0.0 | 3.0 | 0.00 | 0.00 | 0.00 | 96 | 1010.6 |
| 20260505100003 | 46 | 125 | 1.0 | 3.0 | 0.00 | 0.00 | 0.00 | 96 | 1010.5 |
| 20260505095503 | 46 | 130 | 1.0 | 2.0 | 0.00 | 0.00 | 0.00 | 96 | 1010.4 |
| 20260505095003 | 46 | 136 | 1.0 | 2.0 | 0.00 | 0.00 | 0.00 | 95 | 1010.4 |
| 20260505094502 | 46 | 85 | 1.0 | 3.0 | 0.00 | 0.00 | 0.00 | 96 | 1010.3 |
| 20260505094004 | 46 | 147 | 1.0 | 3.0 | 0.00 | 0.00 | 0.00 | 96 | 1010.3 |
| 20260505093506 | 46 | 119 | 1.0 | 2.0 | 0.00 | 0.00 | 0.00 | 96 | 1010.3 |
| 20260505093008 | 46 | 122 | 1.0 | 2.0 | 0.00 | 0.00 | 0.00 | 95 | 1010.3 |
| 20260505092504 | 46 | 118 | 1.0 | 2.0 | 0.00 | 0.00 | 0.00 | 95 | 1010.4 |
| 20260505092004 | 46 | 130 | 1.0 | 2.0 | 0.00 | 0.00 | 0.00 | 95 | 1010.3 |
| 20260505091503 | 46 | 100 | 0.0 | 2.0 | 0.00 | 0.00 | 0.00 | 95 | 1010.4 |
| 20260505091003 | 46 | 99 | 1.0 | 2.0 | 0.00 | 0.00 | 0.00 | 95 | 1010.4 |
| 20260505090503 | 46 | 137 | 1.0 | 2.0 | 0.00 | 0.00 | 0.00 | 95 | 1010.3 |
| 20260505090008 | 46 | 133 | 1.0 | 3.0 | 0.00 | 0.00 | 0.00 | 95 | 1010.3 |
| 20260505085503 | 46 | 119 | 2.0 | 3.0 | 0.00 | 0.00 | 0.00 | 95 | 1010.3 |
| 20260505085002 | 46 | 128 | 2.0 | 2.0 | 0.00 | 0.00 | 0.00 | 95 | 1010.4 |
| 20260505084505 | 46 | 128 | 2.0 | 2.0 | 0.00 | 0.00 | 0.00 | 95 | 1010.5 |
| 20260505084001 | 46 | 133 | 2.0 | 2.0 | 0.00 | 0.00 | 0.00 | 95 | 1010.6 |
| 20260505083502 | 46 | 139 | 1.0 | 3.0 | 0.00 | 0.00 | 0.00 | 95 | 1010.6 |
| 20260505083006 | 46 | 123 | 2.0 | 3.0 | 0.00 | 0.00 | 0.00 | 95 | 1010.6 |
| 20260505082506 | 46 | 140 | 2.0 | 3.0 | 0.00 | 0.00 | 0.00 | 94 | 1010.6 |
| 20260505082006 | 46 | 128 | 2.0 | 3.0 | 0.00 | 0.00 | 0.00 | 95 | 1010.6 |
| 20260505081504 | 46 | 134 | 2.0 | 3.0 | 0.00 | 0.00 | 0.00 | 94 | 1010.5 |
| 20260505081003 | 46 | 141 | 1.0 | 3.0 | 0.00 | 0.00 | 0.00 | 94 | 1010.6 |
| 20260505080503 | 46 | 124 | 2.0 | 3.0 | 0.00 | 0.00 | 0.00 | 94 | 1010.7 |
| 20260505080004 | 46 | 132 | 1.0 | 3.0 | 0.00 | 0.00 | 0.00 | 94 | 1010.7 |
| 20260505075503 | 46 | 113 | 2.0 | 3.0 | 0.00 | 0.00 | 0.00 | 94 | 1010.6 |
| 20260505075003 | 46 | 119 | 1.0 | 3.0 | 0.00 | 0.00 | 0.00 | 94 | 1010.6 |
| 20260505074505 | 46 | 136 | 2.0 | 3.0 | 0.00 | 0.00 | 0.00 | 94 | 1010.6 |
| 20260505074003 | 46 | 129 | 2.0 | 3.0 | 0.00 | 0.00 | 0.00 | 94 | 1010.7 |
| 20260505073505 | 46 | 105 | 1.0 | 3.0 | 0.00 | 0.00 | 0.00 | 94 | 1010.7 |
| 20260505073008 | 46 | 108 | 2.0 | 3.0 | 0.00 | 0.00 | 0.00 | 94 | 1010.7 |
| 20260505072502 | 46 | 130 | 2.0 | 3.0 | 0.00 | 0.00 | 0.00 | 94 | 1010.7 |
| 20260505072002 | 46 | 126 | 2.0 | 3.0 | 0.00 | 0.00 | 0.00 | 94 | 1010.7 |
| 20260505071505 | 46 | 117 | 2.0 | 3.0 | 0.00 | 0.00 | 0.00 | 94 | 1010.7 |
| 20260505071007 | 46 | 125 | 2.0 | 3.0 | 0.00 | 0.00 | 0.00 | 93 | 1010.7 |
| 20260505070502 | 46 | 126 | 2.0 | 3.0 | 0.00 | 0.00 | 0.00 | 93 | 1010.8 |
| 20260505070008 | 46 | 128 | 2.0 | 3.0 | 0.00 | 0.00 | 0.00 | 93 | 1010.8 |
| 20260505065504 | 46 | 122 | 2.0 | 3.0 | 0.00 | 0.00 | 0.00 | 93 | 1010.8 |
| 20260505065006 | 46 | 134 | 2.0 | 3.0 | 0.00 | 0.00 | 0.00 | 93 | 1010.8 |
| 20260505064504 | 46 | 132 | 2.0 | 3.0 | 0.00 | 0.00 | 0.00 | 93 | 1010.8 |
| 20260505064006 | 46 | 129 | 2.0 | 3.0 | 0.00 | 0.00 | 0.00 | 93 | 1010.9 |
| 20260505063506 | 46 | 105 | 2.0 | 3.0 | 0.00 | 0.00 | 0.00 | 92 | 1010.9 |
| 20260505063006 | 46 | 108 | 2.0 | 3.0 | 0.00 | 0.00 | 0.00 | 92 | 1011.0 |
| 20260505062505 | 46 | 115 | 1.0 | 3.0 | 0.00 | 0.00 | 0.00 | 92 | 1011.1 |
| 20260505062006 | 46 | 132 | 2.0 | 3.0 | 0.00 | 0.00 | 0.00 | 92 | 1011.0 |
| 20260505061515 | 46 | 136 | 2.0 | 3.0 | 0.00 | 0.00 | 0.00 | 92 | 1011.1 |
| 20260505061003 | 46 | 121 | 2.0 | 3.0 | 0.00 | 0.00 | 0.00 | 92 | 1011.1 |
| 20260505060503 | 46 | 96 | 2.0 | 3.0 | 0.00 | 0.00 | 0.00 | 92 | 1011.1 |
| 20260505060017 | 46 | 122 | 2.0 | 3.0 | 0.00 | 0.00 | 0.00 | 91 | 1011.2 |
| 20260505055511 | 46 | 127 | 2.0 | 3.0 | 0.00 | 0.00 | 0.00 | 91 | 1011.2 |
| 20260505055003 | 46 | 136 | 1.0 | 2.0 | 0.00 | 0.00 | 0.00 | 91 | 1011.3 |
| 20260505054510 | 46 | 112 | 1.0 | 2.0 | 0.00 | 0.00 | 0.00 | 91 | 1011.3 |
| 20260505054007 | 46 | 128 | 1.0 | 2.0 | 0.00 | 0.00 | 0.00 | 90 | 1011.3 |
| 20260505053501 | 46 | 103 | 1.0 | 2.0 | 0.00 | 0.00 | 0.00 | 90 | 1011.3 |
| 20260505053012 | 46 | 124 | 1.0 | 3.0 | 0.00 | 0.00 | 0.00 | 90 | 1011.2 |
| 20260505052506 | 46 | 111 | 1.0 | 3.0 | 0.00 | 0.00 | 0.00 | 90 | 1011.3 |
| 20260505052003 | 46 | 122 | 1.0 | 2.0 | 0.00 | 0.00 | 0.00 | 89 | 1011.3 |
| 20260505051505 | 46 | 124 | 1.0 | 2.0 | 0.00 | 0.00 | 0.00 | 89 | 1011.4 |
| 20260505051003 | 47 | 111 | 1.0 | 1.0 | 0.00 | 0.00 | 0.00 | 89 | 1011.4 |
| 20260505050506 | 47 | 115 | 1.0 | 2.0 | 0.00 | 0.00 | 0.00 | 88 | 1011.4 |
| 20260505041506 | 49 | 127 | 1.0 | 2.0 | 0.00 | 0.00 | 0.00 | 83 | 1011.8 |
| 20260505041003 | 50 | 135 | 1.0 | 2.0 | 0.00 | 0.00 | 0.00 | 82 | 1011.7 |
| 20260505040503 | 50 | 134 | 1.0 | 2.0 | 0.00 | 0.00 | 0.00 | 81 | 1011.7 |
| 20260505040009 | 51 | 97 | 1.0 | 3.0 | 0.00 | 0.00 | 0.00 | 80 | 1011.6 |
| 20260505035503 | 51 | 96 | 1.0 | 3.0 | 0.00 | 0.00 | 0.00 | 80 | 1011.6 |
| 20260505035003 | 51 | 118 | 1.0 | 4.0 | 0.00 | 0.00 | 0.00 | 79 | 1011.6 |
| 20260505034509 | 51 | 130 | 1.0 | 6.0 | 0.00 | 0.00 | 0.00 | 80 | 1011.6 |
| 20260505034008 | 52 | 155 | 2.0 | 5.0 | 0.00 | 0.00 | 0.00 | 79 | 1011.6 |
| 20260505033507 | 52 | 98 | 1.0 | 4.0 | 0.00 | 0.00 | 0.00 | 78 | 1011.6 |
| 20260505033016 | 52 | 86 | 1.0 | 4.0 | 0.00 | 0.00 | 0.00 | 78 | 1011.6 |
| 20260505032504 | 52 | 107 | 0.0 | 8.0 | 0.00 | 0.00 | 0.00 | 78 | 1011.6 |
| 20260505032007 | 52 | 153 | 2.0 | 7.0 | 0.00 | 0.00 | 0.00 | 78 | 1011.6 |
| 20260505031522 | 52 | 225 | 1.0 | 5.0 | 0.00 | 0.00 | 0.00 | 78 | 1011.7 |
| 20260505031007 | 52 | 265 | 2.0 | 5.0 | 0.00 | 0.00 | 0.00 | 78 | 1011.7 |
| 20260505030507 | 52 | 248 | 1.0 | 8.0 | 0.00 | 0.00 | 0.00 | 77 | 1011.7 |
| 20260505030006 | 52 | 175 | 0.0 | 8.0 | 0.00 | 0.00 | 0.00 | 77 | 1011.6 |
| 20260505025503 | 53 | 99 | 1.0 | 5.0 | 0.00 | 0.00 | 0.00 | 77 | 1011.7 |
| 20260505025004 | 53 | 189 | 1.0 | 5.0 | 0.00 | 0.00 | 0.00 | 77 | 1011.7 |
| 20260505024510 | 53 | 283 | 2.0 | 6.0 | 0.00 | 0.00 | 0.00 | 76 | 1011.6 |
| 20260505024008 | 53 | 119 | 2.0 | 6.0 | 0.00 | 0.00 | 0.00 | 76 | 1011.7 |
| 20260505023503 | 53 | 222 | 1.0 | 4.0 | 0.00 | 0.00 | 0.00 | 76 | 1011.7 |
| 20260505023010 | 53 | 187 | 1.0 | 4.0 | 0.00 | 0.00 | 0.00 | 76 | 1011.7 |
| 20260505022508 | 53 | 198 | 0.0 | 8.0 | 0.00 | 0.00 | 0.00 | 75 | 1011.6 |
| 20260505022010 | 53 | 287 | 1.0 | 8.0 | 0.00 | 0.00 | 0.00 | 75 | 1011.7 |
| 20260505021509 | 53 | 169 | 0.0 | 5.0 | 0.00 | 0.00 | 0.00 | 75 | 1011.6 |
| 20260505021007 | 53 | 217 | 1.0 | 3.0 | 0.00 | 0.00 | 0.00 | 74 | 1011.6 |
| 20260505020506 | 53 | 159 | 0.0 | 3.0 | 0.00 | 0.00 | 0.00 | 74 | 1011.6 |
| 20260505020029 | 53 | 208 | 1.0 | 3.0 | 0.00 | 0.00 | 0.00 | 74 | 1011.7 |
| 20260505015512 | 53 | 219 | 0.0 | 3.0 | 0.00 | 0.00 | 0.00 | 73 | 1011.7 |
| 20260505015007 | 53 | 237 | 1.0 | 3.0 | 0.00 | 0.00 | 0.00 | 73 | 1011.7 |
| 20260505014510 | 53 | 51 | 0.0 | 3.0 | 0.00 | 0.00 | 0.00 | 73 | 1011.7 |
| 20260505014003 | 54 | 248 | 1.0 | 4.0 | 0.00 | 0.00 | 0.00 | 72 | 1011.7 |
| 20260505013503 | 54 | 191 | 2.0 | 4.0 | 0.00 | 0.00 | 0.00 | 71 | 1011.7 |
| 20260505013016 | 54 | 259 | 1.0 | 4.0 | 0.00 | 0.00 | 0.00 | 71 | 1011.7 |
| 20260505012512 | 54 | 213 | 2.0 | 8.0 | 0.00 | 0.00 | 0.00 | 70 | 1011.6 |
| 20260505012004 | 54 | 192 | 0.0 | 9.0 | 0.00 | 0.00 | 0.00 | 70 | 1011.5 |
| 20260505011526 | 55 | 263 | 2.0 | 9.0 | 0.00 | 0.00 | 0.00 | 70 | 1011.4 |
| 20260505011008 | 55 | 160 | 0.0 | 7.0 | 0.00 | 0.00 | 0.00 | 69 | 1011.4 |
| 20260505010505 | 55 | 207 | 2.0 | 7.0 | 0.00 | 0.00 | 0.00 | 69 | 1011.3 |
| 20260505010016 | 55 | 214 | 2.0 | 8.0 | 0.00 | 0.00 | 0.00 | 68 | 1011.2 |
| 20260505005506 | 55 | 189 | 3.0 | 8.0 | 0.00 | 0.00 | 0.00 | 68 | 1011.1 |
| 20260505005008 | 55 | 201 | 4.0 | 8.0 | 0.00 | 0.00 | 0.00 | 68 | 1011.0 |
| 20260505004519 | 55 | 269 | 1.0 | 6.0 | 0.00 | 0.00 | 0.00 | 67 | 1010.9 |
| 20260505004003 | 55 | 140 | 1.0 | 6.0 | 0.00 | 0.00 | 0.00 | 66 | 1010.8 |
| 20260505003502 | 55 | 217 | 2.0 | 6.0 | 0.00 | 0.00 | 0.00 | 65 | 1010.8 |
| 20260505003004 | 56 | 137 | 0.0 | 5.0 | 0.00 | 0.00 | 0.00 | 65 | 1010.6 |
| 20260505002502 | 56 | 242 | 0.0 | 5.0 | 0.00 | 0.00 | 0.00 | 64 | 1010.4 |
| 20260505002002 | 56 | 140 | 1.0 | 5.0 | 0.00 | 0.00 | 0.00 | 63 | 1010.3 |
| 20260505001503 | 57 | 157 | 1.0 | 6.0 | 0.00 | 0.00 | 0.00 | 62 | 1010.3 |
| 20260505001002 | 57 | 94 | 0.0 | 6.0 | 0.00 | 0.00 | 0.00 | 61 | 1010.3 |
| 20260505000502 | 57 | 223 | 3.0 | 6.0 | 0.00 | 0.00 | 0.00 | 60 | 1010.3 |
| 20260505000004 | 58 | 180 | 2.0 | 7.0 | 0.00 | 0.00 | 0.00 | 58 | 1010.2 |
| 20260504235502 | 58 | 180 | 1.0 | 7.0 | 0.00 | 0.00 | 0.00 | 57 | 1010.2 |
| 20260504235001 | 58 | 269 | 0.0 | 3.0 | 0.00 | 0.00 | 0.00 | 56 | 1010.1 |
| 20260504234504 | 59 | 284 | 0.0 | 8.0 | 0.00 | 0.00 | 0.00 | 56 | 1010.1 |
| 20260504234001 | 59 | 342 | 1.0 | 8.0 | 0.00 | 0.00 | 0.00 | 55 | 1009.9 |
| 20260504233502 | 59 | 285 | 1.0 | 5.0 | 0.00 | 0.00 | 0.00 | 55 | 1009.8 |
| 20260504233004 | 60 | 40 | 1.0 | 5.0 | 0.00 | 0.00 | 0.00 | 54 | 1009.6 |
| 20260504232503 | 60 | 279 | 2.0 | 10.0 | 0.00 | 0.00 | 0.00 | 53 | 1009.6 |
| 20260504232002 | 60 | 228 | 4.0 | 11.0 | 0.00 | 0.00 | 0.00 | 53 | 1009.4 |
| 20260504231502 | 61 | 248 | 6.0 | 11.0 | 0.00 | 0.00 | 0.00 | 52 | 1009.4 |
| 20260504231002 | 61 | 229 | 4.0 | 10.0 | 0.00 | 0.00 | 0.00 | 51 | 1009.3 |
| 20260504230503 | 62 | 188 | 2.0 | 8.0 | 0.00 | 0.00 | 0.00 | 50 | 1009.2 |
| 20260504230006 | 62 | 304 | 3.0 | 8.0 | 0.00 | 0.00 | 0.00 | 50 | 1009.2 |
| 20260504225502 | 62 | 257 | 3.0 | 8.0 | 0.00 | 0.00 | 0.00 | 50 | 1009.2 |
| 20260504225002 | 62 | 263 | 3.0 | 14.0 | 0.00 | 0.00 | 0.00 | 48 | 1009.2 |
| 20260504224502 | 62 | 263 | 5.0 | 14.0 | 0.00 | 0.00 | 0.00 | 49 | 1009.1 |
| 20260504224002 | 63 | 250 | 5.0 | 13.0 | 0.00 | 0.00 | 0.00 | 48 | 1009.2 |
| 20260504223502 | 63 | 252 | 5.0 | 12.0 | 0.00 | 0.00 | 0.00 | 48 | 1009.1 |
| 20260504223004 | 63 | 247 | 4.0 | 13.0 | 0.00 | 0.00 | 0.00 | 48 | 1009.1 |
| 20260504222503 | 63 | 264 | 5.0 | 13.0 | 0.00 | 0.00 | 0.00 | 47 | 1009.1 |
| 20260504222004 | 63 | 184 | 3.0 | 13.0 | 0.00 | 0.00 | 0.00 | 48 | 1009.0 |
| 20260504221505 | 63 | 169 | 2.0 | 11.0 | 0.00 | 0.00 | 0.00 | 48 | 1009.0 |
| 20260504221003 | 63 | 135 | 6.0 | 12.0 | 0.00 | 0.00 | 0.00 | 47 | 1009.0 |
| 20260504220503 | 63 | 196 | 7.0 | 14.0 | 0.00 | 0.00 | 0.00 | 47 | 1009.0 |
| 20260504220003 | 64 | 290 | 8.0 | 14.0 | 0.00 | 0.00 | 0.00 | 45 | 1009.1 |
| 20260504215503 | 64 | 271 | 6.0 | 14.0 | 0.00 | 0.00 | 0.00 | 45 | 1009.0 |
| 20260504215004 | 65 | 220 | 8.0 | 16.0 | 0.00 | 0.00 | 0.00 | 44 | 1009.0 |
| 20260504214504 | 65 | 245 | 7.0 | 16.0 | 0.00 | 0.00 | 0.00 | 44 | 1009.0 |
| 20260504214002 | 66 | 258 | 7.0 | 13.0 | 0.00 | 0.00 | 0.00 | 44 | 1009.1 |
| 20260504213503 | 65 | 284 | 3.0 | 13.0 | 0.00 | 0.00 | 0.00 | 45 | 1008.9 |
| 20260504213013 | 66 | 254 | 5.0 | 13.0 | 0.00 | 0.00 | 0.00 | 43 | 1009.0 |
| 20260504212503 | 66 | 63 | 3.0 | 16.0 | 0.00 | 0.00 | 0.00 | 43 | 1008.9 |
| 20260504212004 | 66 | 232 | 5.0 | 16.0 | 0.00 | 0.00 | 0.00 | 43 | 1009.0 |
| 20260504211511 | 66 | 231 | 8.0 | 16.0 | 0.00 | 0.00 | 0.00 | 43 | 1009.0 |
| 20260504211002 | 66 | 261 | 7.0 | 15.0 | 0.00 | 0.00 | 0.00 | 42 | 1009.0 |
| 20260504210503 | 67 | 297 | 5.0 | 13.0 | 0.00 | 0.00 | 0.00 | 42 | 1008.9 |
| 20260504210006 | 67 | 249 | 5.0 | 16.0 | 0.00 | 0.00 | 0.00 | 42 | 1008.9 |
| 20260504205503 | 67 | 269 | 5.0 | 16.0 | 0.00 | 0.00 | 0.00 | 41 | 1008.9 |
| 20260504205003 | 67 | 269 | 4.0 | 12.0 | 0.00 | 0.00 | 0.00 | 42 | 1008.9 |
| 20260504204504 | 67 | 261 | 5.0 | 10.0 | 0.00 | 0.00 | 0.00 | 42 | 1008.9 |
| 20260504204003 | 67 | 267 | 5.0 | 13.0 | 0.00 | 0.00 | 0.00 | 42 | 1008.9 |
| 20260504203506 | 67 | 234 | 5.0 | 13.0 | 0.00 | 0.00 | 0.00 | 44 | 1009.0 |
| 20260504203007 | 67 | 264 | 6.0 | 12.0 | 0.00 | 0.00 | 0.00 | 41 | 1008.9 |
| 20260504202504 | 67 | 265 | 4.0 | 16.0 | 0.00 | 0.00 | 0.00 | 42 | 1009.0 |
| 20260504202003 | 67 | 197 | 7.0 | 14.0 | 0.00 | 0.00 | 0.00 | 41 | 1008.9 |
| 20260504201505 | 67 | 182 | 4.0 | 14.0 | 0.00 | 0.00 | 0.00 | 44 | 1008.9 |
| 20260504201002 | 66 | 319 | 7.0 | 14.0 | 0.00 | 0.00 | 0.00 | 42 | 1008.8 |
| 20260504200504 | 66 | 254 | 9.0 | 14.0 | 0.00 | 0.00 | 0.00 | 40 | 1008.9 |
| 20260504200004 | 67 | 309 | 3.0 | 11.0 | 0.00 | 0.00 | 0.00 | 40 | 1008.9 |
| 20260504195502 | 67 | 246 | 4.0 | 12.0 | 0.00 | 0.00 | 0.00 | 39 | 1008.9 |
| 20260504195002 | 67 | 246 | 7.0 | 16.0 | 0.00 | 0.00 | 0.00 | 39 | 1008.9 |
| 20260504194504 | 67 | 244 | 8.0 | 16.0 | 0.00 | 0.00 | 0.00 | 40 | 1008.9 |
| 20260504194002 | 67 | 273 | 8.0 | 14.0 | 0.00 | 0.00 | 0.00 | 37 | 1008.9 |
| 20260504193501 | 67 | 273 | 7.0 | 14.0 | 0.00 | 0.00 | 0.00 | 37 | 1008.8 |
| 20260504193004 | 67 | 252 | 5.0 | 14.0 | 0.00 | 0.00 | 0.00 | 37 | 1008.8 |
| 20260504192502 | 67 | 268 | 7.0 | 18.0 | 0.00 | 0.00 | 0.00 | 36 | 1008.8 |
| 20260504192003 | 67 | 315 | 7.0 | 18.0 | 0.00 | 0.00 | 0.00 | 36 | 1008.9 |
| 20260504191504 | 67 | 261 | 6.0 | 14.0 | 0.00 | 0.00 | 0.00 | 36 | 1008.8 |
| 20260504191003 | 67 | 276 | 8.0 | 15.0 | 0.00 | 0.00 | 0.00 | 35 | 1008.9 |
| 20260504190503 | 68 | 240 | 5.0 | 15.0 | 0.00 | 0.00 | 0.00 | 38 | 1009.0 |
| 20260504190003 | 68 | 244 | 4.0 | 13.0 | 0.00 | 0.00 | 0.00 | 35 | 1009.0 |
| 20260504185506 | 67 | 232 | 4.0 | 14.0 | 0.00 | 0.00 | 0.00 | 34 | 1009.0 |
| 20260504185002 | 67 | 232 | 4.0 | 14.0 | 0.00 | 0.00 | 0.00 | 37 | 1009.0 |
| 20260504184511 | 67 | 212 | 5.0 | 11.0 | 0.00 | 0.00 | 0.00 | 37 | 1009.0 |
| 20260504184003 | 67 | 215 | 7.0 | 15.0 | 0.00 | 0.00 | 0.00 | 34 | 1009.1 |
| 20260504183503 | 67 | 279 | 7.0 | 15.0 | 0.00 | 0.00 | 0.00 | 35 | 1009.1 |
| 20260504183005 | 67 | 204 | 5.0 | 13.0 | 0.00 | 0.00 | 0.00 | 35 | 1009.2 |
| 20260504182506 | 67 | 305 | 7.0 | 15.0 | 0.00 | 0.00 | 0.00 | 36 | 1009.3 |
| 20260504182002 | 67 | 317 | 9.0 | 15.0 | 0.00 | 0.00 | 0.00 | 35 | 1009.3 |
| 20260504181504 | 67 | 270 | 9.0 | 15.0 | 0.00 | 0.00 | 0.00 | 35 | 1009.3 |
| 20260504181003 | 67 | 312 | 9.0 | 15.0 | 0.00 | 0.00 | 0.00 | 34 | 1009.5 |
| 20260504180503 | 67 | 159 | 4.0 | 14.0 | 0.00 | 0.00 | 0.00 | 34 | 1009.5 |
| 20260504180006 | 67 | 269 | 4.0 | 16.0 | 0.00 | 0.00 | 0.00 | 37 | 1009.6 |
| 20260504175505 | 67 | 276 | 7.0 | 16.0 | 0.00 | 0.00 | 0.00 | 34 | 1009.5 |
| 20260504175004 | 66 | 287 | 10.0 | 16.0 | 0.00 | 0.00 | 0.00 | 35 | 1009.6 |
| 20260504174502 | 66 | 281 | 8.0 | 13.0 | 0.00 | 0.00 | 0.00 | 35 | 1009.7 |
| 20260504174002 | 66 | 279 | 6.0 | 13.0 | 0.00 | 0.00 | 0.00 | 36 | 1009.7 |
| 20260504173506 | 66 | 205 | 5.0 | 12.0 | 0.00 | 0.00 | 0.00 | 35 | 1009.8 |
| 20260504173008 | 66 | 283 | 4.0 | 14.0 | 0.00 | 0.00 | 0.00 | 37 | 1009.8 |
| 20260504172503 | 66 | 280 | 6.0 | 14.0 | 0.00 | 0.00 | 0.00 | 35 | 1009.9 |
| 20260504172003 | 66 | 309 | 7.0 | 14.0 | 0.00 | 0.00 | 0.00 | 37 | 1009.8 |
| 20260504171504 | 66 | 257 | 6.0 | 14.0 | 0.00 | 0.00 | 0.00 | 34 | 1009.7 |
| 20260504171002 | 65 | 139 | 6.0 | 14.0 | 0.00 | 0.00 | 0.00 | 34 | 1009.8 |
| 20260504170503 | 65 | 241 | 7.0 | 14.0 | 0.00 | 0.00 | 0.00 | 34 | 1010.0 |
| 20260504151008 | 64 | 293 | 5.0 | 17.0 | 0.00 | 0.00 | 0.00 | 37 | 1010.9 |
| 20260504150504 | 63 | 297 | 8.0 | 21.0 | 0.00 | 0.00 | 0.00 | 36 | 1011.1 |
| 20260504141002 | 62 | 275 | 9.0 | 17.0 | 0.00 | 0.00 | 0.00 | 39 | 1011.8 |
| 20260504140502 | 62 | 274 | 8.0 | 14.0 | 0.00 | 0.00 | 0.00 | 38 | 1011.8 |
| 20260504130506 | 58 | 270 | 6.0 | 12.0 | 0.00 | 0.00 | 0.00 | 46 | 1012.1 |